{"data":{"norad_id":59607,"intl_designator":"2024-080G","name":"STARLINK-31755","alt_names":[],"object_type":"PAYLOAD","status":"ACTIVE","operator":null,"country":"US","launch_date":"2024-04-28","launch_site_code":"AFETR","launch_vehicle":null,"mission":null,"orbit_class":"UNKNOWN","rcs_meters":null,"size_class":null,"mass_kg":null,"dimensions":null,"purposes":["comms"],"wikipedia_slug":null,"has_3d_model":false,"image_url":null,"decayed_at":null,"tle_current":{"epoch":"2026-09-21T08:47:29.175360Z","epoch_age_seconds":93408,"freshness":"FRESH","line1":"1 59607U 24080G   26264.36630990  .00000772  00000+0  37580-4 0  9999","line2":"2 59607  43.0060  16.7396 0001739 280.9092  79.1564 15.27575682134417","mean_motion":15.27575682,"eccentricity":0.0001739,"inclination_deg":43.006,"raan_deg":16.7396,"arg_perigee_deg":280.9092,"mean_anomaly_deg":79.1564,"bstar":3.758e-5,"rev_number":13441,"period_min":94.267015177583,"perigee_km":481.86886320493,"apogee_km":484.25518822608,"semimajor_km":6861.1990257155,"source":"CELESTRAK","updated_at":"2026-09-22T09:00:49.010197Z"}}}